RADUGA 9 [-]

Last updated on Nov. 18, 2019, 4:21 a.m. UTC

1 12618U 81069A   19320.64430812  .00000145  00000-0  00000-0 0  9995
2 12618  11.9271 318.3386 0002530  32.6320 330.7443  1.00273485 23233
UTC
Height (km)
Latitude
Longitude
Inclination
Orbital Period
UTC large
Height (km)
Speed (km/s)
/
Latitude / Longitude
Inclination (degrees)
Orbital Period (minutes)
Azimuth
Elevation
Range (km)
Doppler Factor
iOS Compass Heading
iOS Angle

Next 30 passes for location: Hong Kong

Rise time Rise Azimuth (degrees) Set time Set Azimuth (degrees) Duration Max altitude (degrees)

No matching passes for this satellites